Regional Weather Roundup
Issued by NWS Upton, NY

Current Version | Previous Version | Text Only | Print | Product List | Glossary On
Versions: 1 2 3 4 5 6 7 8 9 10 11 12 13 14 15 16 17 18 19 20 21 22 23 24 25 26 27 28 29 30 31 32 33 34 35 36 37 38 39 40 41 42 43 44 45 46 47 48 49 50
000 ASUS41 KOKX 061118 RWROKX REGIONAL WEATHER ROUNDUP NATIONAL WEATHER SERVICE NEW YORK NY 700 AM EDT MON JUL 06 2015 NOTE: "FAIR" INDICATES FEW OR NO CLOUDS BELOW 12,000 FEET WITH NO SIGNIFICANT WEATHER AND/OR OBSTRUCTIONS TO VISIBILITY. NYZ071-072-176-178-NJZ106-104-061200- NEW YORK CITY METRO AREA CITY SKY/WX TMP DP RH WIND PRES REMARKS CENTRAL PARK PTSUNNY 74 67 78 CALM 30.18S LAGUARDIA APRT PTSUNNY 73 67 81 CALM 30.15R KENNEDY INTL CLOUDY 72 68 87 S3 30.16S NEWARK/LIBERTY PTSUNNY 72 68 87 CALM 30.15S BRNX BOT. GARD N/A 72 66 83 CALM 30.16S TETERBORO PTSUNNY 71 64 78 CALM 30.14S $$ NYZ177-179-078>081-061200- LONG ISLAND NEW YORK CITY SKY/WX TMP DP RH WIND PRES REMARKS FARMINGDALE PTSUNNY 69 66 90 CALM 30.16S ISLIP PTSUNNY 70 67 90 SW6 30.15S SHIRLEY PTSUNNY 69 67 93 CALM 30.17S WESTHAMPTON PTSUNNY 66 66 100 CALM 30.19R FOG MONTAUK POINT N/A 68 66 93 S3 30.18S $$ NYZ052-065-067-061200- HUDSON VALLEY CITY SKY/WX TMP DP RH WIND PRES REMARKS WHITE PLAINS PTSUNNY 67 66 97 CALM 30.17R FOG NEWBURGH MOSUNNY 63 63 100 CALM 30.18R FOG MONTGOMERY PTSUNNY 61 61 100 CALM 30.17R FOG POUGHKEEPSIE MOSUNNY 62 59 90 CALM 30.17R ALBANY PTSUNNY 63 58 83 CALM 30.16S $$ NJZ001-105-106-008-010-013-015-019>022-104-061200- NEW JERSEY CITY SKY/WX TMP DP RH WIND PRES REMARKS NEWARK/LIBERTY PTSUNNY 72 68 87 CALM 30.15S TETERBORO PTSUNNY 71 64 78 CALM 30.14S CALDWELL N/A 66 62 87 CALM 30.17R MORRISTOWN MOSUNNY 64 61 88 CALM 30.16R FOG SOMERVILLE PTSUNNY 64 61 90 CALM 30.14R SUSSEX PTSUNNY 61 60 97 CALM 30.17R FOG ANDOVER N/A 63 62 97 CALM 30.18R TRENTON CLOUDY 71 67 87 CALM 30.15R MILLVILLE CLOUDY 71 69 93 CALM 30.14S ATLANTIC CITY CLOUDY 71 69 93 E3 30.14F WRIGHTSTOWN SUNNY 68 67 99 CALM 30.13S TOMS RIVER CLOUDY 66 64 94 CALM 30.16S BELMAR CLOUDY 70 64 83 CALM 30.16S $$ PAZ047>061-062-071-061200- EASTERN PENNSYLVANIA CITY SKY/WX TMP DP RH WIND PRES REMARKS PHILADELPHIA CLOUDY 73 68 84 E3 30.14S ALLENTOWN PTSUNNY 68 64 87 CALM 30.16R FOG SCRANTON MOSUNNY 64 58 80 CALM 30.17R $$ CTZ002-004>006-009-010-012-RIZ004-006-007-MAZ004-011-015-061200- SOUTHERN NEW ENGLAND IN CT CITY SKY/WX TMP DP RH WIND PRES REMARKS BRADLEY INTL PTSUNNY 63 60 90 CALM 30.16S HARTFORD MOSUNNY 65 63 93 SE8 30.16S DANBURY FOG 62 59 90 CALM 30.19R VSB 1/4 WTRBRY/OXFORD MOSUNNY 63 55 77 CALM 30.19S FOG BRIDGEPORT MOSUNNY 67 65 93 N5 30.17R FOG MERIDEN MOSUNNY 63 61 93 CALM 30.17R FOG NEW HAVEN PTSUNNY 65 63 93 CALM 30.17R CHESTER FAIR 66 64 94 CALM 30.18S GROTON PTSUNNY 65 62 90 CALM 30.16S FOG WILLIMANTIC PTSUNNY 63 60 90 CALM 30.17F FOG IN RI CITY SKY/WX TMP DP RH WIND PRES REMARKS PROVIDENCE PTSUNNY 66 63 90 SW3 30.17S BLOCK ISLAND MOSUNNY 66 64 94 SW7 30.17S WESTERLY MOSUNNY 64 62 93 CALM 30.18R IN MA CITY SKY/WX TMP DP RH WIND PRES REMARKS BOSTON MOSUNNY 72 61 68 CALM 30.14F WORCESTER MOSUNNY 68 61 78 CALM 30.18S WESTFIELD PTSUNNY 61 59 93 CALM 30.17R PROVINCETOWN MOSUNNY 64 9 11 CALM 30.15S NANTUCKET MOSUNNY 67 64 90 SW7 30.17R $$ ANZ330-335-338-340-345-350-353-355-061200- COASTAL MARINE OBSERVATIONS STATION/POSITION TIME SKY/WX TEMP WIND PRES VSBY WAVE AIR SEA DIR/SP/G HT/PER (UTC) (F) (DEG/KT/KT) (MB) (MI) (FT/S) NY HARB ENTRANCE 1050 71 71 200/ 4/ 4 1021.0 2/ 7 4S FIRE IS 1003 70 N/A 3/ 7 20S FIRE ISLAND 1050 70 69 160/ 4/ 4 1021.3 2/ 7 GREAT SOUTH BAY 1000 72 75 260/ 6/ 8 N/A 23SW MTP 1050 69 69 220/ 6/ 6 1021.5 3/ 8 HUDSON CANYON NOT AVBL KINGS POINT 1000 70 67 160/ 3/ 5 1020.4 CENTRAL LI SOUND NOT AVBL EASTERN LI SOUND 1000 64 63 CALM / 2 N/A ROBBINS REEF 1000 70 110/ 1/ 2 1019.7 $$ >>>>>>>>>>>>>>>>>>>>>>>>>>>> KEY <<<<<<<<<<<<<<<<<<<<<<<<<<< > < > SKY/WX - SKY CONDITION/PRESENT WEATHER < > TMP - TEMPERATURE IN FAHRENHEIT < > DP - DEWPOINT IN FAHRENHEIT < > RH - RELATIVE HUMIDITY IN PERCENT < > WIND - DIRECTION AND SPEED IN MPH < > PRES - MEAN SEA LEVEL PRESSURE IN INCHES OF HG < > WCI - WIND CHILL INDEX < > VSB - VISIBILITY IN MILES < > HX - HEAT INDEX < > TC - TEMPERATURE IN CELSIUS < > VRB - VARIABLE WIND DIRECTION < > < >>>>>>>>>>>>>>>>>>>>>>>>>>>> KEY <<<<<<<<<<<<<<<<<<<<<<<<<<<

USA.gov is the U.S. government's official web portal to all federal, state and local government web resources and services.